Home > Weather > Cheongju > Past weeks

Flag for South Korea Past Weather in Cheongju, South Korea — Yesterday and Last 2 Weeks

Now
66 °F

More clouds than sun.


Feels Like: 66 °F
Forecast: 65 / 78 °F
Wind: 13 mph from Northeast

Location: Chongju Ab

Current Time: Aug 26, 2016 at 2:15:02 PM

Latest Report: Aug 26, 2016 at 1:00 PM


Visibility: N/A

Pressure: 29.80 "Hg

Humidity: 83%

Dew Point: 61 °F

Location of CheongjuLocation

Past Weather in Cheongju — Graph

°F

Cheongju Temperature Yesterday

Maximum temperature yesterday: 91 °F (at 1:00 PM)
Minimum temperature yesterday: 70 °F (at 6:00 AM)
Average temperature yesterday: 81 °F

High & Low Weather Summary for the Past Weeks

 TemperatureHumidityPressure
High97 °F (Aug 20, 4:00 PM)100% (Aug 14, 7:00 AM)29.83 "Hg (Aug 14, 7:00 AM)
Low64 °F (Aug 26, 10:00 AM)32% (Aug 20, 4:00 PM)29.45 "Hg (Aug 16, 6:00 PM)
Average83 °F71%29.69 "Hg
* Reported Aug 11 1:00 PM — Aug 26 1:00 PM, Cheongju, Weather by CustomWeather, © 2016

Note: Actual official high and low records may vary slightly from our data, if they occured in-between our weather recording intervals... More about our weather records

Advertising

Cheongju Weather History for the Previous 24 Hours

Scroll right to see more
 ConditionsComfort  
Time TempWeatherWind HumidityBarometerVisibility
1:00 PM
Fri, Aug 26
66 °FMore clouds than sun.13 mph83%29.80 "HgN/A
12:00 PM66 °FMore clouds than sun.14 mph88%29.80 "HgN/A
11:45 AM64 °FMore clouds than sun.14 mph94%29.80 "HgN/A
11:00 AM64 °FRain. Fog.15 mph94%29.80 "Hg3 mi
10:00 AM64 °FRain. Fog.14 mph100%29.80 "Hg3 mi
9:00 AM66 °FRain. Fog.12 mph94%29.77 "Hg3 mi
8:00 AM70 °FLight rain. Mostly cloudy.12 mph88%29.74 "Hg5 mi
7:00 AM72 °FLight rain. Mostly cloudy.12 mph88%29.71 "Hg5 mi
6:46 AM72 °FLight rain. Mostly cloudy.12 mph88%29.71 "Hg5 mi
6:00 AM75 °FLight rain. Fog.5 mph94%29.68 "Hg3 mi
5:00 AM77 °FLight rain. Overcast.3 mph89%29.65 "Hg5 mi
4:00 AM77 °FMostly cloudy.3 mph89%29.65 "Hg6 mi
3:00 AM79 °FMostly cloudy.3 mph84%29.68 "Hg6 mi
2:00 AM79 °FMostly cloudy.5 mph79%29.68 "Hg6 mi
1:00 AM77 °FMostly cloudy.3 mph89%29.68 "HgN/A
12:00 AM79 °FMostly cloudy.1 mph84%29.68 "HgN/A
11:00 PM
Thu, Aug 25
79 °FMostly cloudy.1 mph79%29.68 "HgN/A
10:00 PM79 °FLight rain. Partly cloudy.1 mph79%29.68 "HgN/A
9:52 PM81 °FLight rain. Partly cloudy.1 mph74%29.68 "HgN/A
9:00 PM81 °FClear.2 mph70%29.68 "Hg10 mi
8:00 PM82 °FClear.2 mph62%29.65 "Hg10 mi
7:00 PM84 °FSunny.3 mph58%29.65 "Hg10 mi
6:00 PM88 °FSunny.8 mph59%29.62 "Hg10 mi
5:00 PM90 °FSunny.8 mph52%29.62 "Hg10 mi
4:00 PM91 °FSunny.7 mph52%29.62 "Hg10 mi
3:00 PM91 °FSunny.2 mph52%29.62 "Hg10 mi
2:00 PM88 °FSunny.7 mph59%29.65 "Hg10 mi
Weather by CustomWeather, © 2016

See weather overviewHow to use our weather pages